Weather History for Rochester, NH

Change the Weather History Date:

Wednesday, February 27, 2013

  Actual Average (KSFM) Record (KSFM)
Temperature  
Mean Temperature 35 °F -  
Max Temperature 37 °F 35 °F 55 °F (2009)
Min Temperature 32 °F 17 °F -11 °F (2003)
Degree Days  
Heating Degree Days 30    
Moisture  
Dew Point 31 °F    
Average Humidity 89    
Maximum Humidity 96    
Minimum Humidity 75    
Precipitation  
Precipitation 0.57 in - - ()
Sea Level Pressure  
Sea Level Pressure 29.90 in    
Wind  
Wind Speed 8 mph (ENE)    
Max Wind Speed 16 mph    
Max Gust Speed 30 mph    
Visibility 3 miles    
Events Fog , Rain , Snow    
Averages and records for this station are not official NWS values.
T = Trace of Precipitation, MM = Missing Value Source: NWS Daily Summary

Daily Weather History Graph

Daily Weather History Graph

Search for Another Location

Airport:

Trip Planner

Search our weather history database for the weather conditions in past years. The results will help you decide how hot, cold, wet, or windy it might be!

Date:

Astronomy

Feb. 27, 2013 Rise Set
Actual Time 6:22 AM EST 5:30 PM EST
Civil Twilight 5:54 AM EST 5:59 PM EST
Nautical Twilight 5:21 AM EST 6:32 PM EST
Astronomical Twilight 4:48 AM EST 7:05 PM EST
Moon 7:54 PM EST (2/27) 6:51 AM EST (2/27)
Length of Visible Light 12h 05m
Length of Day
11h 07m
Waning Gibbous, 96% of the Moon is Illuminated
Feb 27
Waning Gibbous
Mar 4
Last Quarter
Mar 11
New
Mar 19
First Quarter
Mar 27
Full

Hourly Weather History & Observations

Time (EST) Temp. Windchill Dew Point Humidity Pressure Visibility Wind Dir Wind Speed Gust Speed Precip Events Conditions
12:51 AM 34.0 °F 31.0 °F 27.0 °F 75% 30.19 in 10.0 mi ENE 3.5 mph - N/A   Partly Cloudy
1:51 AM 34.0 °F 29.8 °F 27.0 °F 75% 30.16 in 10.0 mi NE 4.6 mph - N/A   Clear
2:51 AM 35.1 °F 32.2 °F 28.0 °F 76% 30.13 in 10.0 mi ENE 3.5 mph - N/A   Overcast
3:51 AM 34.0 °F 28.8 °F 28.0 °F 79% 30.13 in 10.0 mi NNE 5.8 mph - N/A   Overcast
4:14 AM 33.8 °F 27.7 °F 28.4 °F 81% 30.13 in 5.0 mi NNE 6.9 mph - N/A   Haze
4:32 AM 33.8 °F 28.6 °F 30.2 °F 87% 30.13 in 2.0 mi NNE 5.8 mph - 0.00 in Snow Light Snow
4:51 AM 33.1 °F 26.1 °F 30.0 °F 89% 30.10 in 2.5 mi NNE 8.1 mph - 0.01 in Snow Light Snow
5:01 AM 33.8 °F 28.6 °F 30.2 °F 87% 30.09 in 3.0 mi NNE 5.8 mph - 0.00 in Snow Light Snow
5:08 AM 33.8 °F 27.7 °F 30.2 °F 87% 30.10 in 2.5 mi NNE 6.9 mph - 0.00 in Snow Light Snow
5:15 AM 33.8 °F 28.6 °F 30.2 °F 87% 30.10 in 3.0 mi NE 5.8 mph - 0.00 in Snow Light Snow
5:49 AM 33.8 °F 27.7 °F 30.2 °F 87% 30.08 in 1.8 mi NE 6.9 mph - 0.02 in Snow Light Snow
5:50 AM 33.1 °F 26.9 °F 32.0 °F 96% 30.09 in 1.8 mi NE 6.9 mph - 0.03 in Snow Light Snow
6:10 AM 33.8 °F 27.0 °F 32.0 °F 93% 30.07 in 4.0 mi NE 8.1 mph - 0.01 in Snow Light Snow
7:51 AM 35.1 °F 29.3 °F 33.1 °F 92% 30.04 in 5.0 mi Variable 6.9 mph - 0.01 in Rain Light Rain
8:29 AM 35.6 °F 29.2 °F 33.8 °F 93% 30.01 in 3.0 mi ENE 8.1 mph - 0.02 in Rain Light Rain
9:51 AM 37.9 °F 30.5 °F 34.0 °F 86% 29.98 in 8.0 mi ENE 11.5 mph 17.3 mph 0.02 in Rain Light Rain
10:51 AM 37.9 °F 30.9 °F 35.1 °F 89% 29.95 in 7.0 mi East 10.4 mph 19.6 mph 0.02 in Rain Light Rain
11:51 AM 37.9 °F 29.2 °F 35.1 °F 89% 29.91 in 4.0 mi East 15.0 mph 25.3 mph 0.03 in Rain Light Rain
12:02 PM 37.4 °F 30.8 °F 35.6 °F 93% 29.91 in 3.0 mi East 9.2 mph 21.9 mph 0.01 in Rain Light Rain
12:21 PM 37.4 °F 28.2 °F 35.6 °F 93% 29.90 in 2.0 mi East 16.1 mph 25.3 mph 0.02 in Rain Rain
12:44 PM 37.4 °F 28.5 °F 33.8 °F 87% 29.89 in 3.0 mi East 15.0 mph 23.0 mph 0.05 in Rain Light Rain
12:51 PM 37.0 °F 28.9 °F 34.0 °F 89% 29.89 in 3.0 mi East 12.7 mph 26.5 mph 0.05 in Rain Rain
12:59 PM 35.6 °F 25.9 °F 33.8 °F 93% 29.88 in 2.5 mi East 16.1 mph 26.5 mph 0.01 in Rain Rain
1:18 PM 35.6 °F 27.5 °F 32.0 °F 87% 29.87 in 1.0 mi East 11.5 mph 26.5 mph 0.05 in Snow Light Snow
1:27 PM 33.8 °F 26.4 °F 32.0 °F 93% 29.87 in 0.8 mi East 9.2 mph 17.3 mph 0.06 in Snow Light Snow
1:51 PM 34.0 °F 27.2 °F 32.0 °F 92% 29.85 in 0.8 mi East 8.1 mph 19.6 mph 0.09 in Snow Light Snow
2:14 PM 33.8 °F 25.8 °F 32.0 °F 93% 29.84 in 1.0 mi East 10.4 mph 17.3 mph 0.04 in Snow Light Snow
2:26 PM 33.8 °F 25.3 °F 32.0 °F 93% 29.84 in 0.8 mi East 11.5 mph 18.4 mph 0.06 in Snow Light Snow
2:51 PM 33.1 °F 24.9 °F 32.0 °F 96% 29.85 in 0.5 mi East 10.4 mph 19.6 mph 0.10 in Fog , Snow Snow
3:38 PM 33.8 °F 25.8 °F 30.2 °F 87% 29.82 in 1.0 mi ENE 10.4 mph 19.6 mph 0.05 in Snow Light Snow
3:51 PM 33.1 °F 23.9 °F 30.9 °F 92% 29.83 in 1.0 mi East 12.7 mph - 0.06 in Snow Light Snow
4:51 PM 33.1 °F 24.9 °F 30.9 °F 92% 29.81 in 1.0 mi ENE 10.4 mph 18.4 mph 0.03 in Snow Light Snow
5:24 PM 33.8 °F 24.3 °F 30.2 °F 87% 29.79 in 0.8 mi ENE 13.8 mph 25.3 mph 0.02 in Snow Light Snow
5:36 PM 33.8 °F 23.9 °F 30.2 °F 87% 29.78 in 1.2 mi ENE 15.0 mph 25.3 mph 0.03 in Snow Light Snow
5:51 PM 33.1 °F 23.4 °F 30.9 °F 92% 29.78 in 1.5 mi NE 13.8 mph 23.0 mph 0.03 in Snow Light Snow
6:03 PM 33.8 °F 24.8 °F 30.2 °F 87% 29.77 in 0.8 mi NE 12.7 mph 23.0 mph 0.02 in Snow Light Snow
6:13 PM 33.8 °F 23.5 °F 30.2 °F 87% 29.77 in 1.8 mi NE 16.1 mph 29.9 mph 0.02 in Snow Light Snow
6:35 PM 33.8 °F 25.3 °F 30.2 °F 87% 29.76 in 2.0 mi ENE 11.5 mph 23.0 mph 0.03 in Snow Light Snow
6:51 PM 33.1 °F 23.9 °F 30.9 °F 92% 29.76 in 1.2 mi ENE 12.7 mph 24.2 mph 0.04 in Snow Light Snow
7:51 PM 33.1 °F 23.4 °F 30.9 °F 92% 29.73 in 1.0 mi NE 13.8 mph 19.6 mph 0.01 in Snow Light Snow
8:51 PM 33.1 °F 23.0 °F 30.9 °F 92% 29.68 in 1.5 mi ENE 15.0 mph 21.9 mph 0.02 in Snow Light Snow
9:35 PM 33.8 °F 24.8 °F 30.2 °F 87% 29.66 in 2.0 mi NE 12.7 mph 21.9 mph 0.00 in Snow Light Snow
9:51 PM 33.1 °F 23.0 °F 30.9 °F 92% 29.65 in 2.0 mi NNE 15.0 mph 21.9 mph 0.01 in Snow Light Snow
10:12 PM 33.8 °F 26.4 °F 32.0 °F 93% 29.65 in 3.0 mi NNE 9.2 mph - 0.00 in   Overcast
10:46 PM 33.8 °F 27.0 °F 32.0 °F 93% 29.63 in 2.5 mi NNE 8.1 mph - 0.01 in Snow Light Snow
10:51 PM 33.1 °F 26.1 °F 32.0 °F 96% 29.63 in 2.5 mi NNE 8.1 mph - 0.01 in Snow Light Snow
11:51 PM 32.0 °F 22.1 °F 30.9 °F 96% 29.60 in 3.0 mi North 13.8 mph 23.0 mph 0.00 in Rain Light Freezing Rain